TimePDT,TemperatureF,Dew PointF,Humidity,Sea Level PressureIn,VisibilityMPH,Wind Direction,Wind SpeedMPH,Gust SpeedMPH,PrecipitationIn,Events,Conditions,WindDirDegrees,DateUTC
12:53 AM,69.8,37.4,31,30.09,10.0,SW,6.9,-,N/A,,Clear,230,2012-10-05 07:53:00
1:53 AM,66.9,37.0,33,30.01,10.0,SW,10.4,-,N/A,,Clear,230,2012-10-05 08:53:00
2:53 AM,66.0,39.0,37,30.01,10.0,WSW,6.9,-,N/A,,Clear,250,2012-10-05 09:53:00
3:53 AM,66.9,44.1,44,30.00,10.0,West,15.0,19.6,N/A,,Clear,270,2012-10-05 10:53:00
4:53 AM,66.0,46.0,48,30.01,10.0,West,11.5,-,N/A,,Clear,270,2012-10-05 11:53:00
5:53 AM,64.9,46.0,50,30.01,10.0,WSW,5.8,-,N/A,,Clear,250,2012-10-05 12:53:00
6:53 AM,63.0,45.0,52,30.03,10.0,South,4.6,-,N/A,,Clear,190,2012-10-05 13:53:00
7:53 AM,66.9,46.0,47,30.04,10.0,WSW,3.5,-,N/A,,Clear,250,2012-10-05 14:53:00
8:53 AM,72.0,42.1,34,30.04,10.0,West,6.9,-,N/A,,Clear,280,2012-10-05 15:53:00
9:53 AM,77.0,37.4,24,30.11,10.0,WNW,13.8,-,N/A,,Clear,300,2012-10-05 16:53:00
10:53 AM,79.0,37.0,22,30.02,10.0,WNW,11.5,-,N/A,,Clear,300,2012-10-05 17:53:00
11:53 AM,82.0,37.9,21,30.01,10.0,NW,10.4,17.3,N/A,,Clear,310,2012-10-05 18:53:00
12:53 PM,82.9,37.0,19,29.99,10.0,WNW,11.5,19.6,N/A,,Clear,300,2012-10-05 19:53:00
1:53 PM,84.0,35.1,17,29.96,10.0,NW,16.1,19.6,N/A,,Clear,310,2012-10-05 20:53:00
2:53 PM,84.0,34.0,17,29.94,10.0,WNW,23.0,-,N/A,,Clear,300,2012-10-05 21:53:00
3:53 PM,82.0,34.0,18,29.94,10.0,WNW,21.9,-,N/A,,Clear,300,2012-10-05 22:53:00
4:53 PM,80.1,34.0,19,29.94,10.0,WNW,27.6,35.7,N/A,,Clear,290,2012-10-05 23:53:00
5:53 PM,75.0,34.0,22,29.95,10.0,WNW,24.2,-,N/A,,Clear,290,2012-10-06 00:53:00
6:53 PM,73.0,34.0,24,29.96,10.0,West,23.0,-,N/A,,Clear,280,2012-10-06 01:53:00
7:53 PM,71.1,34.0,26,29.97,10.0,WNW,18.4,-,N/A,,Clear,290,2012-10-06 02:53:00
8:53 PM,70.0,33.1,26,29.97,10.0,West,6.9,-,N/A,,Clear,260,2012-10-06 03:53:00
9:53 PM,68.0,32.0,26,29.96,10.0,SW,4.6,-,N/A,,Clear,230,2012-10-06 04:53:00
10:53 PM,66.9,30.9,26,29.96,10.0,West,10.4,-,N/A,,Clear,270,2012-10-06 05:53:00
11:53 PM,64.9,30.9,28,29.96,10.0,SW,8.1,-,N/A,,Clear,220,2012-10-06 06:53:00